| time (UTC) | temp F | wind direction | speed knots | gust knots | rain 1hr in | rain 24hr in | rain mn in | humidity % | barometer mb |
| 20260904050006 | 62 | 282 | 0.0 | 0.0 | 0.00 | 0.00 | 0.00 | 97 | 1013.5 |
| 20260904044520 | 62 | 282 | 0.0 | 0.0 | 0.00 | 0.00 | 0.00 | 97 | 1013.6 |
| 20260904043032 | 62 | 282 | 0.0 | 0.9 | 0.00 | 0.00 | 0.00 | 97 | 1013.4 |
| 20260904041527 | 62 | 282 | 0.0 | 0.0 | 0.00 | 0.00 | 0.00 | 96 | 1013.5 |
| 20260904040009 | 62 | 282 | 0.0 | 0.0 | 0.00 | 0.00 | 0.00 | 97 | 1013.4 |
| 20260904034511 | 62 | 282 | 0.0 | 0.0 | 0.00 | 0.00 | 0.00 | 96 | 1013.4 |
| 20260904033019 | 62 | 282 | 0.0 | 0.0 | 0.00 | 0.00 | 0.00 | 96 | 1013.5 |
| 20260904031535 | 63 | 282 | 0.0 | 1.7 | 0.00 | 0.00 | 0.00 | 96 | 1013.5 |
| 20260904030030 | 63 | 208 | 0.0 | 2.6 | 0.00 | 0.00 | 0.00 | 96 | 1013.5 |
| 20260904024508 | 63 | 140 | 0.0 | 1.7 | 0.00 | 0.00 | 0.00 | 96 | 1013.5 |
| 20260904023014 | 63 | 40 | 0.0 | 0.9 | 0.00 | 0.00 | 0.00 | 95 | 1013.5 |
| 20260904021525 | 64 | 40 | 0.0 | 0.9 | 0.00 | 0.00 | 0.00 | 95 | 1013.7 |
| 20260904020028 | 64 | 40 | 0.0 | 0.0 | 0.00 | 0.00 | 0.00 | 95 | 1013.7 |
| 20260904014533 | 64 | 40 | 0.0 | 0.9 | 0.00 | 0.01 | 0.00 | 94 | 1013.6 |
| 20260904013012 | 65 | 40 | 0.0 | 0.9 | 0.00 | 0.03 | 0.00 | 94 | 1013.7 |
| 20260904011518 | 65 | 40 | 0.0 | 0.0 | 0.00 | 0.05 | 0.00 | 93 | 1013.6 |
| 20260904010026 | 66 | 40 | 0.0 | 0.0 | 0.00 | 0.06 | 0.00 | 93 | 1013.8 |
| 20260904004534 | 66 | 40 | 0.0 | 0.0 | 0.00 | 0.08 | 0.00 | 92 | 1013.8 |
| 20260904003033 | 66 | 40 | 0.0 | 0.9 | 0.00 | 0.11 | 0.00 | 92 | 1013.6 |
| 20260904001516 | 67 | 40 | 0.0 | 0.9 | 0.00 | 0.13 | 0.00 | 91 | 1013.4 |
| 20260904000024 | 68 | 40 | 0.0 | 0.0 | 0.00 | 0.14 | 0.00 | 88 | 1013.5 |
| 20260903234529 | 68 | 40 | 0.0 | 0.0 | 0.00 | 0.14 | 0.00 | 87 | 1013.4 |
| 20260903233031 | 69 | 40 | 0.0 | 0.0 | 0.00 | 0.14 | 0.00 | 85 | 1013.3 |
| 20260903231512 | 71 | 40 | 0.0 | 0.0 | 0.00 | 0.14 | 0.00 | 83 | 1013.2 |
| 20260903230034 | 72 | 40 | 0.0 | 0.0 | 0.00 | 0.14 | 0.00 | 82 | 1013.1 |
| 20260903224533 | 73 | 40 | 0.0 | 0.0 | 0.00 | 0.14 | 0.00 | 80 | 1013.0 |
| 20260903223031 | 74 | 40 | 0.0 | 2.6 | 0.00 | 0.14 | 0.00 | 73 | 1013.1 |
| 20260903221512 | 74 | 26 | 0.0 | 2.6 | 0.00 | 0.14 | 0.00 | 71 | 1013.2 |
| 20260903220025 | 75 | 58 | 0.9 | 2.6 | 0.00 | 0.14 | 0.00 | 70 | 1013.2 |
| 20260903214530 | 76 | 61 | 0.0 | 2.6 | 0.00 | 0.14 | 0.00 | 70 | 1013.1 |
| 20260903213041 | 76 | 90 | 0.9 | 3.5 | 0.00 | 0.14 | 0.00 | 68 | 1013.0 |
| 20260903211523 | 76 | 30 | 1.7 | 4.3 | 0.00 | 0.14 | 0.00 | 66 | 1013.2 |
| 20260903210018 | 77 | 52 | 1.7 | 7.8 | 0.00 | 0.14 | 0.00 | 62 | 1013.3 |
| 20260903204519 | 77 | 302 | 2.6 | 7.8 | 0.00 | 0.14 | 0.00 | 64 | 1013.5 |
| 20260903203027 | 77 | 338 | 3.5 | 9.6 | 0.00 | 0.14 | 0.00 | 60 | 1013.5 |
| 20260903201535 | 78 | 322 | 1.7 | 8.7 | 0.00 | 0.14 | 0.00 | 63 | 1013.5 |
| 20260903200013 | 79 | 303 | 4.3 | 8.7 | 0.00 | 0.14 | 0.00 | 61 | 1013.5 |
| 20260903194523 | 79 | 308 | 2.6 | 7.8 | 0.00 | 0.14 | 0.00 | 61 | 1013.5 |
| 20260903193025 | 78 | 5 | 3.5 | 7.8 | 0.00 | 0.14 | 0.00 | 63 | 1013.7 |
| 20260903191528 | 78 | 292 | 0.9 | 6.1 | 0.00 | 0.14 | 0.00 | 62 | 1013.7 |
| 20260903190030 | 78 | 306 | 3.5 | 7.8 | 0.00 | 0.14 | 0.00 | 62 | 1013.9 |
| 20260903184515 | 78 | 307 | 3.5 | 8.7 | 0.00 | 0.14 | 0.00 | 62 | 1014.0 |
| 20260903183019 | 78 | 305 | 4.3 | 12.2 | 0.00 | 0.14 | 0.00 | 63 | 1014.0 |
| 20260903181532 | 78 | 360 | 4.3 | 9.6 | 0.00 | 0.14 | 0.00 | 62 | 1014.0 |
| 20260903180040 | 77 | 17 | 1.7 | 9.6 | 0.00 | 0.14 | 0.00 | 69 | 1013.9 |
| 20260903174533 | 78 | 335 | 1.7 | 7.0 | 0.00 | 0.14 | 0.00 | 64 | 1013.9 |
| 20260903173015 | 77 | 347 | 4.3 | 8.7 | 0.00 | 0.14 | 0.00 | 67 | 1014.0 |
| 20260903171524 | 77 | 302 | 2.6 | 8.7 | 0.00 | 0.14 | 0.00 | 68 | 1014.0 |
| 20260903170027 | 76 | 331 | 1.7 | 8.7 | 0.00 | 0.14 | 0.00 | 69 | 1014.0 |
| 20260903164529 | 76 | 20 | 1.7 | 7.0 | 0.00 | 0.14 | 0.00 | 66 | 1014.2 |
| 20260903163034 | 76 | 311 | 2.6 | 7.8 | 0.00 | 0.14 | 0.00 | 71 | 1014.2 |
| 20260903161519 | 75 | 306 | 1.7 | 7.8 | 0.00 | 0.14 | 0.00 | 75 | 1014.2 |
| 20260903160025 | 75 | 20 | 2.6 | 8.7 | 0.00 | 0.14 | 0.00 | 77 | 1014.4 |
| 20260903154539 | 74 | 266 | 1.7 | 7.0 | 0.00 | 0.14 | 0.00 | 81 | 1014.6 |
| 20260903153030 | 74 | 312 | 3.5 | 9.6 | 0.00 | 0.15 | 0.00 | 81 | 1014.7 |
| 20260903151518 | 73 | 343 | 2.6 | 8.7 | 0.00 | 0.19 | 0.00 | 85 | 1014.7 |
| 20260903150025 | 72 | 290 | 3.5 | 7.8 | 0.00 | 0.22 | 0.00 | 84 | 1014.7 |
| 20260903144530 | 71 | 308 | 3.5 | 8.7 | 0.00 | 0.26 | 0.00 | 86 | 1014.6 |
| 20260903143044 | 70 | 342 | 1.7 | 9.6 | 0.00 | 0.30 | 0.00 | 92 | 1014.6 |
| 20260903141517 | 69 | 240 | 0.9 | 8.7 | 0.00 | 0.33 | 0.00 | 96 | 1014.6 |
| 20260903140016 | 68 | 314 | 1.7 | 7.0 | 0.00 | 0.36 | 0.00 | 96 | 1014.6 |
| 20260903134503 | 68 | 313 | 1.7 | 5.2 | 0.00 | 0.36 | 0.00 | 98 | 1014.5 |
| 20260903133007 | 67 | 315 | 0.9 | 6.1 | 0.00 | 0.37 | 0.00 | 98 | 1014.5 |
| 20260903131513 | 66 | 265 | 0.9 | 3.5 | 0.00 | 0.40 | 0.00 | 98 | 1014.6 |
| 20260903130017 | 66 | 223 | 1.7 | 4.3 | 0.00 | 0.40 | 0.00 | 98 | 1014.6 |
| 20260903124517 | 66 | 287 | 0.0 | 1.7 | 0.00 | 0.40 | 0.00 | 98 | 1014.5 |
| 20260903123006 | 65 | 263 | 0.9 | 5.2 | 0.00 | 0.40 | 0.00 | 98 | 1014.4 |
| 20260903121508 | 65 | 264 | 0.9 | 3.5 | 0.00 | 0.40 | 0.00 | 99 | 1014.5 |
| 20260903120015 | 65 | 281 | 0.9 | 3.5 | 0.00 | 0.40 | 0.00 | 98 | 1014.5 |
| 20260903114520 | 65 | 267 | 0.9 | 2.6 | 0.00 | 0.40 | 0.00 | 99 | 1014.4 |
| 20260903113022 | 64 | 267 | 0.0 | 0.9 | 0.00 | 0.40 | 0.00 | 98 | 1014.1 |
| 20260903111508 | 64 | 267 | 0.0 | 2.6 | 0.00 | 0.40 | 0.00 | 98 | 1014.0 |
| 20260903110011 | 64 | 225 | 0.0 | 1.7 | 0.00 | 0.40 | 0.00 | 99 | 1013.8 |
| 20260903104520 | 64 | 180 | 0.0 | 0.9 | 0.00 | 0.40 | 0.00 | 98 | 1013.6 |
| 20260903103020 | 64 | 180 | 0.0 | 0.9 | 0.00 | 0.40 | 0.00 | 98 | 1013.7 |
| 20260903101527 | 64 | 180 | 0.0 | 0.9 | 0.00 | 0.40 | 0.00 | 98 | 1013.7 |
| 20260903100008 | 64 | 180 | 0.0 | 0.9 | 0.00 | 0.40 | 0.00 | 98 | 1013.7 |
| 20260903094514 | 64 | 180 | 0.0 | 1.7 | 0.00 | 0.40 | 0.00 | 98 | 1013.7 |
| 20260903093036 | 64 | 236 | 0.0 | 0.9 | 0.00 | 0.40 | 0.00 | 98 | 1013.8 |
| 20260903091532 | 64 | 236 | 0.0 | 2.6 | 0.00 | 0.40 | 0.00 | 98 | 1013.8 |
| 20260903090028 | 64 | 152 | 0.0 | 0.9 | 0.00 | 0.40 | 0.00 | 98 | 1013.7 |
| 20260903084533 | 64 | 152 | 0.9 | 2.6 | 0.00 | 0.40 | 0.00 | 98 | 1013.7 |
| 20260903083021 | 64 | 152 | 0.0 | 1.7 | 0.00 | 0.40 | 0.00 | 98 | 1013.5 |
| 20260903081528 | 64 | 152 | 0.0 | 1.7 | 0.00 | 0.40 | 0.00 | 98 | 1013.6 |
| 20260903080024 | 64 | 152 | 0.9 | 4.3 | 0.00 | 0.40 | 0.00 | 98 | 1013.6 |
| 20260903074509 | 64 | 221 | 0.0 | 1.7 | 0.00 | 0.40 | 0.00 | 98 | 1013.6 |
| 20260903073018 | 64 | 221 | 0.0 | 1.7 | 0.00 | 0.40 | 0.00 | 98 | 1014.0 |
| 20260903071524 | 64 | 221 | 0.0 | 1.7 | 0.00 | 0.40 | 0.00 | 98 | 1014.1 |
| 20260903070027 | 64 | 221 | 0.0 | 2.6 | 0.00 | 0.40 | 0.00 | 98 | 1014.2 |
| 20260903064526 | 64 | 221 | 0.9 | 1.7 | 0.00 | 0.40 | 0.00 | 98 | 1013.9 |
| 20260903063013 | 64 | 221 | 0.0 | 1.7 | 0.00 | 0.40 | 0.00 | 98 | 1013.9 |
| 20260903061528 | 64 | 221 | 0.0 | 0.9 | 0.00 | 0.40 | 0.00 | 98 | 1013.9 |
| 20260903060027 | 64 | 221 | 0.0 | 1.7 | 0.00 | 0.40 | 0.00 | 98 | 1013.9 |
| 20260903054527 | 64 | 221 | 0.0 | 0.9 | 0.00 | 0.40 | 0.00 | 98 | 1013.8 |
| 20260903053036 | 65 | 212 | 0.9 | 3.5 | 0.00 | 0.40 | 0.00 | 98 | 1013.7 |
| 20260903051518 | 65 | 182 | 1.7 | 4.3 | 0.00 | 0.40 | 0.00 | 98 | 1013.7 |